Regional Weather Roundup
Issued by NWS Little Rock, AR

Home | Current Version | Previous Version | Graphics & Text | Print | Product List | Glossary On
Versions: 1 2 3 4 5 6 7 8 9 10 11 12 13 14 15 16 17 18 19 20 21 22 23 24 25 26 27 28 29 30 31 32 33 34 35 36 37 38 39 40 41 42 43 44 45 46 47 48 49 50
000
ASUS44 KLZK 180605
RWRLZK

WEATHER ROUNDUP FOR ARKANSAS
NATIONAL WEATHER SERVICE LITTLE ROCK AR
100 AM CDT THU SEP 18 2014

NOTE: "FAIR" INDICATES FEW OR NO CLOUDS BELOW 12,000 FEET WITH NO
SIGNIFICANT WEATHER AND/OR OBSTRUCTIONS TO VISIBILITY.

ARZ001-003-010-029-180700-
NORTHWEST ARKANSAS

CITY           SKY/WX    TMP DP  RH WIND       PRES   REMARKS
FAYETTEVILLE   CLOUDY    63  63 100 S3        29.93F
6HR MIN TEMP:  63; 6HR MAX TEMP:  70; 6HR PCP: TRACE;

FORT SMITH     CLOUDY    69  66  90 CALM      29.89S
6HR MIN TEMP:  68; 6HR MAX TEMP:  80; 6HR PCP:  1.70;

HARRISON       FOG       61  61 100 CALM      29.95F VSB 1/4
6HR MIN TEMP:  61; 6HR MAX TEMP:  67;

BENTONVILLE    CLOUDY    64  63  94 S3        29.94F
6HR MIN TEMP:  64; 6HR MAX TEMP:  66;

ROGERS         CLOUDY    65  63  93 S5        29.94F
6HR MIN TEMP:  64; 6HR MAX TEMP:  67;

SILOAM SPGS    CLOUDY    64  61  88 S5        29.94F
6HR MIN TEMP:  64; 6HR MAX TEMP:  66; 6HR PCP:  0.02;

HIGHFILL       CLOUDY    64  63  96 S5        29.93F
6HR MIN TEMP:  63; 6HR MAX TEMP:  67;

$$

ARZ004-005-016-180700-
NORTH CENTRAL ARKANSAS

CITY           SKY/WX    TMP DP  RH WIND       PRES   REMARKS
BATESVILLE     CLOUDY    63  61  94 E7        29.95F
6HR MIN TEMP:  63; 6HR MAX TEMP:  66;

FLIPPIN        CLOUDY    64  61  88 SE6       29.94F VSB 1/4
6HR MIN TEMP:  63; 6HR MAX TEMP:  64;

MTN HOME       FOG       64  64 100 E6        29.94F VSB 1/4
6HR MIN TEMP:  63; 6HR MAX TEMP:  64;

$$

ARZ040-041-180700-
WEST CENTRAL ARKANSAS

CITY           SKY/WX    TMP DP  RH WIND       PRES   REMARKS
MENA             N/A     72  70  94 CALM        N/A
MOUNT IDA      CLOUDY    76  71  85 VRB3      29.88F
6HR MIN TEMP:  73; 6HR MAX TEMP:  79;

$$

ARZ009-017-025-026-028-180700-
NORTHEAST ARKANSAS

CITY           SKY/WX    TMP DP  RH WIND       PRES   REMARKS
CORNING          N/A     64  64 100 NE7       29.96F FOG
JONESBORO      MOCLDY    62  62 100 NE3       29.95F
6HR MIN TEMP:  61; 6HR MAX TEMP:  65;

NEWPORT        CLOUDY    62  62 100 VRB5      29.96F FOG
6HR MIN TEMP:  62; 6HR MAX TEMP:  67;

WALNUT RIDGE   CLOUDY    63  61  94 NE5       29.95F
6HR MIN TEMP:  61; 6HR MAX TEMP:  64;

BLYTHEVILLE    CLOUDY    63  62  97 NE3       29.95F
6HR MIN TEMP:  63; 6HR MAX TEMP:  65;

$$

ARZ022-023-033-042-044-180700-
CENTRAL ARKANSAS

CITY           SKY/WX    TMP DP  RH WIND       PRES   REMARKS
LITTLE ROCK    CLOUDY    73  69  87 NE3       29.92R
6HR MIN TEMP:  73; 6HR MAX TEMP:  81;

N LITTLE ROCK    N/A     72  71  95 SE6       29.92R
6HR MIN TEMP:  72; 6HR MAX TEMP:  80;

JACKSONVILLE   CLOUDY    70  68  94 E3        29.92S
6HR MIN TEMP:  70; 6HR MAX TEMP:  78;

SEARCY         CLOUDY    65  63  93 NE8       29.94F
6HR MIN TEMP:  65; 6HR MAX TEMP:  69;

HOT SPRINGS    CLOUDY    75  71  87 NE8       29.93R
6HR MIN TEMP:  74; 6HR MAX TEMP:  81;

RUSSELLVILLE   CLOUDY    72  69  90 E5        29.90R
6HR MIN TEMP:  72; 6HR MAX TEMP:  76;

CLINTON        FAIR      64  64 100 CALM      29.94S FOG
$$

ARZ036-180700-
EAST ARKANSAS

CITY           SKY/WX    TMP DP  RH WIND       PRES   REMARKS
WEST MEMPHIS   CLOUDY    65  65 100 CALM      29.92F
6HR MIN TEMP:  64; 6HR MAX TEMP:  70;

$$

ARZ050-053-066-070-073-180700-
SOUTHWEST ARKANSAS

CITY           SKY/WX    TMP DP  RH WIND       PRES   REMARKS
ARKADELPHIA    FAIR      73  73 100 CALM      29.91F
6HR MIN TEMP:  73; 6HR MAX TEMP:  81; 6HR PCP: TRACE;

CAMDEN         CLOUDY    73  68  83 N3        29.91R
TEXARKANA      MOCLDY    77  72  84 S5        29.91S
6HR MIN TEMP:  75; 6HR MAX TEMP:  81;

EL DORADO      CLOUDY    72  71  97 CALM      29.92S
6HR MIN TEMP:  71; 6HR MAX TEMP:  81;

DE QUEEN       CLOUDY    75  72  90 N9        29.91S
6HR MIN TEMP:  73; 6HR MAX TEMP:  81;

$$

ARZ056-057-069-180700-
SOUTHEAST ARKANSAS

CITY           SKY/WX    TMP DP  RH WIND       PRES   REMARKS
PINE BLUFF     CLOUDY    73  69  87 CALM      29.92S
6HR MIN TEMP:  71; 6HR MAX TEMP:  81;

STUTTGART      MOCLDY    72  66  83 E3        29.92F
6HR MIN TEMP:  72; 6HR MAX TEMP:  79;

MONTICELLO     CLOUDY    74  69  85 CALM      29.90F
6HR MIN TEMP:  73; 6HR MAX TEMP:  81;


$$




USA.gov is the U.S. government's official web portal to all federal, state and local government web resources and services.